Погода в Сургуте

Россия / Ханты-Мансийский автономный округ - Югра     61°15′14″N   73°23′46″E
темп.,
°C
ветер,
м/с
пор.,
м/с
влажн.,
%
обл.,
%
осадки,
мм/ч
давл.,
гПа
погр.,
м
16 мая, вс
вс1623:00+10в5866100 0.1 1014369
02:00+9в697097 0.0 1013381
05:00+8в5873100 0.0 1014346
08:00+8в5773100 0.0 1015505
11:00+10в4566100 0.0 1016662
14:00+12в325842 0.0 1016768
17:00+14в2154100 0.0 10161060
20:00+13вюв236193 0.0 1015211
17 мая, пн
пн1723:00+10ююв357678 0.0 1016108
02:00+10ю4980100 0.0 1014243
05:00+9юв3688100 0.9 1012192
08:00+11юв3587100 0.9 1011330
11:00+14ююв238298 1.2 1010426
14:00+17ссз137661 0.6 1009399
17:00+16ссв468195 2.1 1008412
20:00+12св4588100 0.4 1008287
18 мая, вт
вт1823:00+10св3489100 0.4 1009265
02:00+9св4591100 0.0 1009323
05:00+8св4790100 0.0 1010376
08:00+9всв5884100 0.0 1011452
11:00+11св3573100 0.0 1012791
14:00+10св5768100 0.0 1013591
17:00+12св5757100 0.0 10131439
20:00+11ссв4854100 0.0 1015274
19 мая, ср
ср1923:00+8ссв7135251 0.0 1017633
02:00+4ссв713715 0.0 1020616
05:00+3ссв711675 0.0 1022857
08:00+4ссв794817 0.0 10241112
11:00+7ссв67351 0.0 10251502
14:00+8с67305 0.0 10251741
17:00+8с672965 0.0 10251779
20:00+7ссз363871 0.0 1025387
20 мая, чт
чт2023:00+4с2249100 0.0 102528
02:00+4юв0147100 0.0 102510
05:00+5юз2347100 0.0 1025144
08:00+7ююз3440100 0.1 1024968
11:00+6ю6967100 0.6 1021863
14:00+11ююз61149100 0.1 1016985
17:00+18зюз61149100 0.1 1012649
20:00+20з8174970 0.0 1009557